Weather History for KPPF - October, 2012

Change the Weather History Date:

Monday, October 8, 2012

  Actual Average Record
Temperature  
Mean Temperature 47 °F -  
Max Temperature 64 °F 72 °F 95 °F (1979)
Min Temperature 30 °F 49 °F 27 °F (2000)
Degree Days  
Heating Degree Days 18    
Moisture  
Dew Point 32 °F    
Average Humidity 63    
Maximum Humidity 92    
Minimum Humidity 31    
Precipitation  
Precipitation 0.00 in - - ()
Sea Level Pressure  
Sea Level Pressure 30.14 in    
Wind  
Wind Speed 4 mph (South)    
Max Wind Speed 14 mph    
Max Gust Speed 23 mph    
Visibility 10 miles    
Events      
Averages and records for this station are not official NWS values.
T = Trace of Precipitation, MM = Missing Value Source: NWS Daily Summary

Daily Weather History Graph

Daily Weather History Graph

Search for Another Location

Airport or City:

Trip Planner

Search our weather history database for the weather conditions in past years. The results will help you decide how hot, cold, wet, or windy it might be!

Date:

Astronomy

Oct. 08, 2012 Rise Set
Actual Time 7:24 AM CDT 6:54 PM CDT
Civil Twilight 6:57 AM CDT 7:20 PM CDT
Nautical Twilight 6:27 AM CDT 7:50 PM CDT
Astronomical Twilight 5:57 AM CDT 8:20 PM CDT
Moon 12:13 AM CDT (10/8) 2:36 PM CDT (10/8)
Length of Visible Light 12h 22m
Length of Day
11h 30m
Last Quarter, 46% of the Moon is Illuminated
Oct 8
Last Quarter
Oct 15
New
Oct 21
First Quarter
Oct 29
Full
Nov 6
Last Quarter

Hourly Weather History & Observations

Time (CDT) Temp. Windchill Dew Point Humidity Pressure Visibility Wind Dir Wind Speed Gust Speed Precip Events Conditions
12:52 AM 39.9 °F 36.7 °F 30.0 °F 68% 30.22 in 10.0 mi SSW 4.6 mph - N/A   Clear
1:52 AM 36.0 °F - 28.9 °F 76% 30.23 in 10.0 mi Calm Calm - N/A   Clear
2:52 AM 34.0 °F - 28.9 °F 82% 30.22 in 10.0 mi Calm Calm - N/A   Clear
3:52 AM 32.0 °F - 28.0 °F 85% 30.20 in 10.0 mi Calm Calm - N/A   Clear
4:52 AM 30.0 °F - 27.0 °F 88% 30.20 in 10.0 mi Calm Calm - N/A   Clear
5:52 AM 30.9 °F - 28.0 °F 89% 30.20 in 10.0 mi Calm Calm - N/A   Clear
6:52 AM 30.9 °F - 28.9 °F 92% 30.21 in 10.0 mi Calm Calm - N/A   Clear
7:52 AM 32.0 °F 27.5 °F 30.0 °F 92% 30.21 in 8.0 mi South 4.6 mph - N/A   Clear
8:52 AM 39.0 °F 33.4 °F 35.1 °F 86% 30.22 in 10.0 mi South 8.1 mph - N/A   Clear
9:52 AM 46.0 °F 41.4 °F 35.1 °F 66% 30.21 in 10.0 mi SSW 9.2 mph - N/A   Clear
10:52 AM 53.1 °F - 34.0 °F 48% 30.21 in 10.0 mi SSW 8.1 mph - N/A   Clear
11:52 AM 55.9 °F - 30.9 °F 39% 30.19 in 10.0 mi SW 13.8 mph 21.9 mph N/A   Clear
1:53 PM 61.0 °F - 33.1 °F 35% 30.12 in 10.0 mi South 9.2 mph - N/A   Unknown
2:52 PM 63.0 °F - 32.0 °F 31% 30.08 in 10.0 mi South 11.5 mph 23.0 mph N/A   Clear
3:52 PM 64.0 °F - 33.1 °F 31% 30.06 in 10.0 mi South 12.7 mph 18.4 mph N/A   Clear
5:52 PM 62.1 °F - 34.0 °F 35% 30.04 in 10.0 mi South 10.4 mph 20.7 mph N/A   Clear
6:52 PM 57.9 °F - 36.0 °F 44% 30.03 in 10.0 mi South 4.6 mph - N/A   Clear
7:52 PM 54.0 °F - 37.0 °F 53% 30.03 in 10.0 mi South 5.8 mph - N/A   Clear
8:52 PM 52.0 °F - 36.0 °F 54% 30.04 in 10.0 mi South 5.8 mph - N/A   Clear
9:52 PM 51.1 °F - 36.0 °F 56% 30.05 in 10.0 mi South 5.8 mph - N/A   Clear
10:52 PM 48.9 °F - 36.0 °F 61% 30.05 in 10.0 mi South 4.6 mph - N/A   Clear
11:52 PM 46.9 °F - 36.0 °F 66% 30.04 in 10.0 mi South 4.6 mph - N/A   Clear